Weather History for KSUA - September, 2013

Change the Weather History Date:

Thursday, September 26, 2013

  Actual Average (KVRB) Record (KVRB)
Temperature  
Mean Temperature 83 °F 80 °F  
Max Temperature 89 °F 87 °F 93 °F (2000)
Min Temperature 77 °F 73 °F 63 °F (2008)
Degree Days  
Heating Degree Days 0 0  
Month to date heating degree days 0  
Since 1 July heating degree days 0  
Cooling Degree Days 18 15  
Month to date cooling degree days 410  
Year to date cooling degree days 2708  
Growing Degree Days 33 (Base 50)    
Moisture  
Dew Point 72 °F    
Average Humidity 76    
Maximum Humidity 89    
Minimum Humidity 55    
Precipitation  
Precipitation 0.00 in 0.22 in 6.00 in (2004)
Month to date precipitation 5.88  
Year to date precipitation 40.58  
Sea Level Pressure  
Sea Level Pressure 29.84 in    
Wind  
Wind Speed 6 mph (West)    
Max Wind Speed 20 mph    
Max Gust Speed 20 mph    
Visibility 9 miles    
Events      
T = Trace of Precipitation, MM = Missing Value Source: NWS Daily Summary

Daily Weather History Graph

Daily Weather History Graph

Search for Another Location

Airport or City:

Trip Planner

Search our weather history database for the weather conditions in past years. The results will help you decide how hot, cold, wet, or windy it might be!

Date:

Astronomy

Sep. 26, 2013 Rise Set
Actual Time 7:11 AM EDT 7:12 PM EDT
Civil Twilight 6:48 AM EDT 7:35 PM EDT
Nautical Twilight 6:21 AM EDT 8:02 PM EDT
Astronomical Twilight 5:53 AM EDT 8:29 PM EDT
Moon No Moon Rise 1:35 PM EDT (9/26)
Length of Visible Light 12h 47m
Length of Day
12h 01m
Waning Gibbous, 55% of the Moon is Illuminated
Sep 26
Waning Gibbous
Sep 26
Last Quarter
Oct 4
New
Oct 11
First Quarter
Oct 18
Full

Hourly Weather History & Observations

Time (EDT) Temp. Heat Index Dew Point Humidity Pressure Visibility Wind Dir Wind Speed Gust Speed Precip Events Conditions
12:15 AM 77.0 °F - 71.6 °F 83% 29.86 in 10.0 mi Calm Calm - N/A   Scattered Clouds
12:35 AM 77.0 °F - 71.6 °F 83% 29.86 in 10.0 mi WSW 3.5 mph - N/A   Clear
12:55 AM 77.0 °F - 71.6 °F 83% 29.86 in 10.0 mi Calm Calm - N/A   Scattered Clouds
1:15 AM 77.0 °F - 71.6 °F 83% 29.85 in 10.0 mi SW 3.5 mph - N/A   Mostly Cloudy
1:35 AM 77.0 °F - 71.6 °F 83% 29.85 in 10.0 mi SW 4.6 mph - N/A   Scattered Clouds
1:55 AM 77.0 °F - 71.6 °F 83% 29.85 in 10.0 mi WSW 5.8 mph - N/A   Scattered Clouds
2:15 AM 77.0 °F - 71.6 °F 83% 29.84 in 10.0 mi SW 5.8 mph - N/A   Scattered Clouds
2:35 AM 77.0 °F - 71.6 °F 83% 29.84 in 10.0 mi SW 4.6 mph - N/A   Clear
2:55 AM 77.0 °F - 71.6 °F 83% 29.83 in 10.0 mi WSW 4.6 mph - N/A   Clear
3:15 AM 77.0 °F - 71.6 °F 83% 29.83 in 10.0 mi WSW 3.5 mph - N/A   Clear
3:35 AM 77.0 °F - 71.6 °F 83% 29.83 in 10.0 mi WSW 4.6 mph - N/A   Clear
3:55 AM 77.0 °F - 71.6 °F 83% 29.83 in 10.0 mi WSW 5.8 mph - N/A   Clear
4:15 AM 77.0 °F - 71.6 °F 83% 29.82 in 10.0 mi WSW 4.6 mph - N/A   Clear
4:35 AM 77.0 °F - 71.6 °F 83% 29.82 in 10.0 mi WSW 5.8 mph - N/A   Clear
4:55 AM 77.0 °F - 71.6 °F 83% 29.82 in 10.0 mi SW 6.9 mph - N/A   Clear
5:15 AM 77.0 °F - 71.6 °F 83% 29.83 in 10.0 mi SW 6.9 mph - N/A   Clear
5:35 AM 77.0 °F - 71.6 °F 83% 29.83 in 10.0 mi WSW 8.1 mph - N/A   Clear
5:55 AM 77.0 °F - 71.6 °F 83% 29.83 in 10.0 mi SW 5.8 mph - N/A   Clear
6:15 AM 77.0 °F - 71.6 °F 83% 29.83 in 10.0 mi SW 4.6 mph - N/A   Clear
6:47 AM 77.0 °F - 73.4 °F 89% 29.83 in 10.0 mi SW 8.1 mph - N/A   Partly Cloudy
7:47 AM 77.0 °F - 73.4 °F 89% 29.85 in 10.0 mi SW 8.1 mph - N/A   Partly Cloudy
8:47 AM 80.6 °F 86.2 °F 75.2 °F 84% 29.86 in 7.0 mi WSW 9.2 mph - N/A   Mostly Cloudy
9:20 AM 82.4 °F 89.5 °F 75.2 °F 79% 29.87 in 7.0 mi WSW 9.2 mph - N/A   Mostly Cloudy
9:47 AM 82.4 °F 89.5 °F 75.2 °F 79% 29.87 in 7.0 mi West 11.5 mph - N/A   Overcast
10:47 AM 86.0 °F 93.4 °F 73.4 °F 66% 29.87 in 7.0 mi West 15.0 mph 19.6 mph N/A   Mostly Cloudy
11:47 AM 87.8 °F 95.6 °F 73.4 °F 62% 29.87 in 7.0 mi West 19.6 mph - N/A   Mostly Cloudy
12:47 PM 89.6 °F 96.2 °F 71.6 °F 55% 29.84 in 7.0 mi West 18.4 mph - N/A   Mostly Cloudy
1:47 PM 86.0 °F 93.4 °F 73.4 °F 66% 29.82 in 7.0 mi West 9.2 mph - N/A   Mostly Cloudy
2:47 PM 84.2 °F 89.6 °F 71.6 °F 66% 29.81 in 7.0 mi West 12.7 mph - N/A   Mostly Cloudy
3:47 PM 86.0 °F 95.1 °F 75.2 °F 70% 29.81 in 7.0 mi WNW 12.7 mph - N/A   Mostly Cloudy
4:47 PM 86.0 °F 93.4 °F 73.4 °F 66% 29.81 in 7.0 mi WSW 8.1 mph - N/A   Mostly Cloudy
5:47 PM 89.6 °F 98.2 °F 73.4 °F 59% 29.81 in 7.0 mi Calm Calm - N/A   Mostly Cloudy
6:47 PM 86.0 °F 89.4 °F 68.0 °F 55% 29.81 in 7.0 mi WNW 12.7 mph - N/A   Mostly Cloudy
8:15 PM 82.4 °F 87.2 °F 71.6 °F 70% 29.83 in 10.0 mi North 6.9 mph - N/A   Mostly Cloudy
8:35 PM 82.4 °F 88.2 °F 73.4 °F 74% 29.84 in 10.0 mi North 11.5 mph 17.3 mph N/A   Mostly Cloudy
8:55 PM 80.6 °F 84.6 °F 71.6 °F 74% 29.84 in 10.0 mi North 9.2 mph - N/A   Scattered Clouds
9:15 PM 80.6 °F 84.6 °F 71.6 °F 74% 29.84 in 10.0 mi North 9.2 mph - N/A   Clear
9:35 PM 80.6 °F 84.6 °F 71.6 °F 74% 29.85 in 10.0 mi North 8.1 mph - N/A   Clear
9:55 PM 80.6 °F 84.6 °F 71.6 °F 74% 29.86 in 10.0 mi North 8.1 mph - N/A   Clear
10:15 PM 80.6 °F 84.6 °F 71.6 °F 74% 29.86 in 10.0 mi North 5.8 mph - N/A   Clear
10:35 PM 80.6 °F 84.6 °F 71.6 °F 74% 29.87 in 10.0 mi North 4.6 mph - N/A   Scattered Clouds
10:55 PM 80.6 °F 84.6 °F 71.6 °F 74% 29.87 in 10.0 mi North 5.8 mph - N/A   Scattered Clouds
11:15 PM 80.6 °F 83.9 °F 69.8 °F 70% 29.87 in 10.0 mi North 6.9 mph - N/A   Mostly Cloudy
11:35 PM 80.6 °F 84.6 °F 71.6 °F 74% 29.87 in 10.0 mi North 3.5 mph - N/A   Scattered Clouds
11:55 PM 80.6 °F 84.6 °F 71.6 °F 74% 29.87 in 10.0 mi North 4.6 mph - N/A   Clear